CDT,Max TemperatureF,Mean TemperatureF,Min TemperatureF,Max Dew PointF,MeanDew PointF,Min DewpointF,Max Humidity, Mean Humidity, Min Humidity, Max Sea Level PressureIn, Mean Sea Level PressureIn, Min Sea Level PressureIn, Max VisibilityMiles, Mean VisibilityMiles, Min VisibilityMiles, Max Wind SpeedMPH, Mean Wind SpeedMPH, Max Gust SpeedMPH,PrecipitationIn, CloudCover, Events, WindDirDegrees
2011-10-1,86,66,46,34,32,28,57,33,13,30.27,30.22,30.16,10,10,7,21,10,28,0.00,0,,202
2011-10-2,87,66,46,41,36,32,66,34,14,30.24,30.20,30.13,10,10,7,20,9,26,0.00,0,,208
2011-10-3,86,68,50,46,38,30,71,36,13,30.25,30.20,30.14,10,10,7,23,11,29,0.00,0,,202
2011-10-4,80,62,44,41,34,28,71,38,16,30.26,30.18,30.09,10,10,5,24,9,33,0.00,0,,186
2011-10-5,66,60,53,61,46,32,100,65,32,30.14,30.05,29.93,10,10,1,26,11,30,0.58,5,Rain-Thunderstorm,162
2011-10-6,80,68,57,59,55,50,94,67,34,29.93,29.85,29.75,10,10,7,33,19,44,0.00,0,,179
2011-10-7,84,72,60,57,53,43,77,52,23,29.97,29.88,29.83,10,10,10,30,19,38,0.00,2,Thunderstorm,184
2011-10-8,69,60,50,55,40,25,88,54,18,30.04,29.95,29.80,10,10,4,30,15,38,0.19,1,Rain-Thunderstorm,247
2011-10-9,62,53,44,46,42,37,93,70,39,30.17,30.11,30.08,10,10,7,17,8,21,0.00,1,,34
2011-10-10,73,62,50,52,47,36,100,70,25,30.14,30.07,29.96,10,8,0,21,11,28,0.00,4,Fog,200
2011-10-11,80,66,53,54,46,28,94,62,16,30.00,29.90,29.78,10,10,7,23,15,30,0.00,1,,218
2011-10-12,77,60,44,43,37,32,87,45,19,30.08,29.97,29.81,10,10,5,20,10,25,0.00,0,,357
2011-10-13,78,58,39,45,37,32,81,50,24,30.17,30.07,29.93,10,10,10,20,7,25,0.00,0,,204
2011-10-14,77,60,42,43,39,36,76,47,24,30.02,29.97,29.93,10,10,10,17,9,22,0.00,0,,335
2011-10-15,82,62,42,45,41,36,87,56,19,30.18,30.12,30.06,10,10,10,12,7,,0.00,0,,331
2011-10-16,87,68,50,45,40,32,76,43,14,30.11,30.06,29.99,10,10,10,20,8,21,0.00,0,,242
2011-10-17,86,62,39,43,37,28,87,55,12,30.16,29.94,29.79,10,10,2,41,11,60,0.00,0,,329
2011-10-18,62,48,35,36,28,19,87,51,20,30.35,30.26,30.18,10,10,10,32,18,41,0.00,2,,357
2011-10-19,64,48,32,28,26,23,75,43,21,30.29,30.21,30.08,10,10,7,15,7,17,0.00,2,,302
2011-10-20,77,57,37,30,26,21,65,37,12,30.09,30.01,29.97,10,10,7,18,10,24,0.00,0,,233
2011-10-21,80,56,33,32,28,19,81,45,10,30.20,30.14,30.07,10,10,10,18,5,29,0.00,0,,233
2011-10-22,78,56,33,36,33,28,87,46,16,30.13,30.07,30.02,10,10,10,15,7,20,0.00,0,,2
2011-10-23,78,58,37,41,33,27,81,47,15,30.22,30.16,30.12,10,10,10,15,6,20,0.00,0,,238
2011-10-24,82,64,46,50,38,30,76,41,15,30.23,30.16,30.04,10,10,5,26,12,37,0.00,0,,208
2011-10-25,86,70,53,43,37,30,63,35,13,30.07,30.00,29.92,10,10,4,23,14,32,0.00,0,,243
2011-10-26,59,49,37,37,36,34,93,58,42,30.12,30.04,29.93,10,10,4,28,14,37,0.00,3,Rain,30
2011-10-27,37,34,32,36,32,30,100,95,87,30.22,30.17,30.11,10,6,0,25,15,33,0.03,7,Rain-Snow-Thunderstorm,1
2011-10-28,51,40,28,37,31,27,100,78,47,30.35,30.29,30.22,10,10,10,7,4,,0.00,0,,306
2011-10-29,66,49,32,43,38,32,100,71,37,30.29,30.12,29.95,10,10,7,25,10,33,0.00,0,,224
2011-10-30,60,48,37,41,34,30,93,59,31,30.26,30.16,29.98,10,10,10,22,9,26,0.00,0,,25
2011-10-31,71,52,33,41,35,32,93,59,23,30.26,30.14,30.00,10,10,7,22,9,30,0.00,0,,224